This is the latest recevied weather packets stored in our database for station/object SR5NLK-1. If no packets are shown the sender has not sent any weather packets the latest 10 day(s).
| Time | Temp. | Humidity | Pressure | Rain* | Wind** | Luminosity | Snow |
|---|---|---|---|---|---|---|---|
| 1778235146 | 13.89° C | 67% | 1004.1 hPa | 0 mm | - | - | - |
| 1778234846 | 13.89° C | 68% | 1046 hPa | 0 mm | - | - | - |
| 1778234605 | 13.89° C | 68% | 1052.2 hPa | 0 mm | - | - | - |
| 1778234546 | 13.89° C | 68% | 1081.5 hPa | 0 mm | - | - | - |
| 1778234246 | 13.89° C | 67% | 1087.8 hPa | 0 mm | - | - | - |
| 1778233946 | 13.89° C | 67% | 1084.6 hPa | 0 mm | - | - | - |
| 1778233646 | 14.44° C | 65% | 1007.9 hPa | 0 mm | - | - | - |
| 1778233346 | 15° C | 64% | 1081.5 hPa | 0 mm | - | - | - |
| 1778233046 | 15.56° C | 64% | 1030.3 hPa | 0 mm | - | - | - |
| 1778232746 | 16.11° C | 65% | 1036.6 hPa | 0 mm | - | - | - |
| 1778232625 | 16.11° C | 67% | 994.7 hPa | 0 mm | - | - | - |
| 1778232446 | 16.11° C | 65% | 1055.4 hPa | 0 mm | - | - | - |
| 1778232146 | 16.11° C | 66% | 1036.6 hPa | 0 mm | - | - | - |
| 1778231846 | 16.11° C | 70% | 881.7 hPa | 0 mm | - | - | - |
| 1778231546 | 15.56° C | 74% | 1027.1 hPa | 0 mm | - | - | - |
| 1778231246 | 15° C | 75% | 1087.8 hPa | 0 mm | - | - | - |
| 1778230946 | 13.89° C | 79% | 1039.7 hPa | 0 mm | - | - | - |
| 1778230656 | 13.89° C | - | - | - | - | - | - |
| 1778230645 | 13.33° C | 78% | 1052.2 hPa | 0 mm | - | - | - |
| 1778230346 | 13.33° C | 78% | 1081.5 hPa | 0 mm | - | - | - |
| 1778230046 | 13.33° C | 81% | 1049.1 hPa | 0 mm | - | - | - |
| 1778229746 | 12.78° C | 82% | 1090.9 hPa | 0 mm | - | - | - |
| 1778229446 | 12.22° C | 84% | 1090.9 hPa | 0 mm | - | - | - |
| 1778229146 | 11.67° C | 84% | 1078.4 hPa | 0 mm | - | - | - |
| 1778228846 | 11.67° C | 84% | 1058.5 hPa | 0 mm | - | - | - |
* Rain latest hour (hover to see other rain measurements)
** Current wind speed in m/s (hover to see current wind gust speed)